AirNav   Pilot Hours Calculator
 
 1155 users online  

KLHM Lincoln Regional Airport/Karl Harder Field
Lincoln, California, USA

GOING TO LINCOLN?


FAA INFORMATION EFFECTIVE 26 MARCH 2020

Location

FAA Identifier: LHM
Lat/Long: 38-54-33.0000N 121-21-04.8000W
38-54.550000N 121-21.080000W
38.9091667,-121.3513333
(estimated)
Elevation: 121.4 ft. / 37.0 m (surveyed)
Variation: 14E (2010)
From city: 3 miles W of LINCOLN, CA
Time zone: UTC -7 (UTC -8 during Standard Time)
Zip code: 95648

Airport Operations

Airport use: Open to the public
Activation date: 07/1944
Control tower: no
ARTCC: OAKLAND CENTER
FSS: RANCHO MURIETA FLIGHT SERVICE STATION
NOTAMs facility: RIU (NOTAM-D service available)
Attendance: MON-FRI 0630 - 1500
Wind indicator: lighted
Segmented circle: yes
Lights: ACTVT MALSR RWY 15; MIRL RWY 15/33, HELI PERIMETER LGTS - CTAF. PAPI RWYS 15 & 33 TURNED ON DURING DALGT HRS, AFTER DARK ACTVT - CTAF.
Beacon: white-green (lighted land airport)
Operates sunset to sunrise.

Airport Communications

CTAF/UNICOM: 123.0
WX AWOS-3: 124.25 (916-645-0698)
NORCAL APPROACH: 125.4 [1600-0800Z++ MON-FRI, 1800-0200Z++ SAT-SUN]
NORCAL DEPARTURE: 125.4 [1600-0800Z++ MON-FRI, 1800-0200Z++ SAT-SUN]
WX AWOS-3 at AUN (13 nm E): 119.375 (530-888-8934)
WX AWOS-3 at MCC (15 nm S): 125.975 (916-641-1272)
WX ASOS at MYV (15 nm NW): 118.475 (530-742-0695)
WX ASOS at SMF (17 nm SW): PHONE 916-649-3996

Nearby radio navigation aids

VOR radial/distance  VOR name  Freq  Var
MCCr353/14.7MC CLELLAN VOR/DME109.2017E
MYVr122/15.4MARYSVILLE VOR/DME110.8016E
SACr002/29.5SACRAMENTO VORTAC115.2017E
HNWr274/30.2HANGTOWN VOR/DME115.5017E
ILAr089/33.0WILLIAMS VORTAC114.4018E

Airport Services

Fuel available: 100LL JET-A
FOR JET A AND 100LL FUEL TRUCK CTC (916) 257-4854, 0600-1700. SELF SVC FUEL AVBL 24 HRS.
Parking: tiedowns
Airframe service: MAJOR
Powerplant service: MAJOR
Bottled oxygen: NONE
Bulk oxygen: NONE

Runway Information

Runway 15/33

Dimensions: 6001 x 100 ft. / 1829 x 30 m
Surface: asphalt, in good condition
Weight bearing capacity: 
Single wheel: 30.0
Double wheel: 60.0
Runway edge lights: medium intensity
RUNWAY 15  RUNWAY 33
Latitude: 38-55.027855N38-54.071655N
Longitude: 121-21.240792W121-20.919870W
Elevation: 119.8 ft.119.7 ft.
Traffic pattern: leftleft
Runway heading: 151 magnetic, 165 true331 magnetic, 345 true
Markings: precision, in good conditionnonprecision, in good condition
Visual slope indicator: 4-light PAPI on left (3.00 degrees glide path)4-light PAPI on left (3.00 degrees glide path)
Approach lights: MALSR: 1,400 foot medium intensity approach lighting system with runway alignment indicator lights
Runway end identifier lights: nono
Touchdown point: yes, no lightsyes, no lights
Instrument approach: ILS/DME
Obstructions: 25 ft. tree, 1000 ft. from runway, 32:1 slope to clear40 ft. trees, 1600 ft. from runway, 35:1 slope to clear

Helipad H1

Dimensions: 60 x 60 ft. / 18 x 18 m
Surface: concrete
Runway edge lights: PERI
Latitude: 38-54.208117N
Longitude: 121-20.726117W
Elevation: 118.0 ft.
Traffic pattern: leftleft

Airport Ownership and Management from official FAA records

Ownership: Publicly-owned
Owner: CITY OF LINCOLN
600 6TH STREET
LINCOLN, CA 95648
Phone (916) 434-2450
Manager: RICHARD SPINALE
1480 FLIGHTLINE DR.
LINCOLN, CA 95648
Phone 916-645-3443
AIRPORT@CI.LINCOLN.CA.US, JHANSON@CI.LINCOLN.CA.US

Airport Operational Statistics

Aircraft based on the field: 76
Single engine airplanes: 72
Multi engine airplanes: 2
Helicopters: 2
    
Aircraft operations: avg 204/day *
50% local general aviation
46% transient general aviation
4% air taxi
* for 12-month period ending 31 December 2017

Additional Remarks

A30A-15 RY 15 CALM WND RY.
FOR CD CTC NORCAL APCH AT 916-361-6874.
PWRD PRCHT ACT SW QUAD OF ARPT.

Instrument Procedures

NOTE: All procedures below are presented as PDF files. If you need a reader for these files, you should download the free Adobe Reader.

NOT FOR NAVIGATION. Please procure official charts for flight.
FAA instrument procedures published for use from 26 March 2020 at 0901Z to 23 April 2020 at 0900Z.

 
IAPs - Instrument Approach Procedures
ILS OR LOC RWY 15   download (251KB)
RNAV (GPS) RWY 15   download (208KB)
RNAV (GPS) RWY 33   download (188KB)
NOTE: Special Alternate Minimums apply   download (19KB)
NOTE: Special Take-Off Minimums/Departure Procedures apply   download (128KB)

Other nearby airports with instrument procedures:

KAUN - Auburn Municipal Airport (13 nm E)
KBAB - Beale Air Force Base (14 nm N)
KMCC - Mc Clellan Airfield (15 nm S)
KMYV - Yuba County Airport (15 nm NW)
KSMF - Sacramento International Airport (17 nm SW)
 
Loc | Ops | Rwys | IFR | FBO | Links
Com | Nav | Svcs | Stats | Notes
Area around KLHM (Lincoln Regional Airport/Karl Harder Field)
 
Road maps at: MapQuest Bing Google
 
Aerial photo
WARNING: Photo may not be current or correct
Aerial photo of KLHM (Lincoln Regional Airport/Karl Harder Field)
Photo by Rockne Green
Photo taken 29-Sep-2009

Do you have a better or more recent aerial photo of Lincoln Regional Airport/Karl Harder Field that you would like to share? If so, please send us your photo.

 
Sectional chart

 
Airport distance calculator
Flying to Lincoln Regional Airport/Karl Harder Field? Find the distance to fly.

From to KLHM

Sunrise and sunset
Times for 10-Apr-2020
 Local
(UTC-7)
 Zulu
(UTC)
Morning civil twilight06:0813:08
Sunrise06:3613:36
Sunset19:3702:37
Evening civil twilight20:0503:05

Current date and time
Zulu (UTC)  10-Apr-2020 18:45:15
Local (UTC-7)  10-Apr-2020 11:45:15
 
METAR
KLHM 101835Z AUTO 34004KT 10SM BKN028 16/10 A3002 RMK AO1
KAUN 
13nm E 
101835Z AUTO 27008KT 10SM BKN021 BKN026 15/10 A3002 RMK A01
KBAB 
14nm N 
101758Z AUTO 34005KT 10SM SCT027 SCT210 17/10 A3002 RMK AO2 SLP169 T01700104 10171 20101 57007 $
KMCC 
15nm S 
101835Z AUTO 32008KT 10SM SCT030 BKN038 17/10 A3003 RMK AO2
KMYV 
15nm NW 
101753Z AUTO 31008KT 10SM FEW030 18/10 A3004 RMK AO2 SLP174 T01780100 10178 20083 58007
KSMF 
17nm SW 
101753Z VRB03KT 10SM SCT025 BKN210 17/11 A3003 RMK AO2 SLP170 T01670106 10172 20072 56006
TAF
KBAB 
14nm N 
101400Z 1014/1109 VRB05KT 9999 SCT050 QNH3003INS BECMG 1016/1017 30007KT 9999 SCT040 QNH2997INS BECMG 1102/1103 VRB05KT 9999 SKC QNH2990INS TX23/1023Z TN09/1015Z
KMCC 
15nm S 
101730Z 1018/1118 30007KT P6SM SKC FM110000 20008KT P6SM SCT250
KSMF 
17nm SW 
101730Z 1018/1118 VRB05KT P6SM SKC FM110000 18010KT P6SM SCT250
NOTAMs
Click for the latest NOTAMs
NOTAMs are issued by the DoD/FAA and will open in a separate window not controlled by AirNav.

 

 
 

FBO, Fuel Providers, and Aircraft Ground Support

  
 Business Name 
 
 Contact 
 
 Services / Description 
 
Fuel Prices
 
Comments
  
Lincoln Regional Airport/Karl Harder Field 916-645-3443
[web site]
[email]
Airport management, Aviation fuel, Aircraft parking (ramp or tiedown), Hangar leasing / sales, Passenger terminal and lounge, Flight training, ...
 
Crew car   Avis   Hertz   Wireless Internet Access (WiFi)   Wheelchair Accessible  
 
More info about Lincoln Regional Airport/Karl Harder Field
EPIC
100LL Jet A
FS $5.09 $5.38 
SS $4.79 $5.33 
 Updated 30-Mar-2020
 
   1 read write
FS=Full service
SS=Self service
Update Fuel Prices
 

Aviation Businesses, Services, and Facilities

  
 Business Name 
 
 Contact 
 
 Services / Description 
 
Distance
 
Comments
  
Crosswind Properties, LLC 415-899-9908
[web site]
[email]
Hangars, Hangar leasing / sales

More info about Crosswind Properties, LLC
on airport  
   write
Lincoln Skyways 916-645-3449
916-730-0788
[web site]
[email]
Aircraft ground handling, Oxygen service, Hangar leasing / sales, GPU / Power cart, Flight training, Aircraft rental, Aircraft maintenance, Aircraft modifications, ...
 
Cessna Service Center  
 
More info about Lincoln Skyways
on airport  
   write
Kracon Aircraft Refinishing 916-645-1614
no information available

If you are affiliated with Kracon Aircraft Refinishing and would like to show here your services, contact info, web link, logo, and more, click here
on airport  
   write
 

Would you like to see your business listed on this page?

 If your business provides an interesting product or service to pilots, flight crews, aircraft, or users of the Lincoln Regional Airport/Karl Harder Field, you should consider listing it here.  To start the listing process, click on the button below
 
Add a business
 

Other Pages about Lincoln Regional Airport/Karl Harder Field

lincolnca.gov/...
 
Update a link
 
Copyright © AirNav, LLC. All rights reserved. Privacy Policy  Contact